Volver al catálogo

STARLINK-5773

ActivoComunicacionesVLEO
NORAD 57074·PAYLOAD·🇺🇸 United States

Lanzado Jun 22, 2023 desde Vandenberg Space Force Base

Loading…

Próximos Pases (próximas 24 horas)

TLE

ActualizadoSource: CelesTrak SupGP

Época: Sep 15, 2026, 02:08 UTC

1 57074C 23088AC  26258.08937500  .00044223  00000+0  16020-2 0  2582
2 57074  43.0006 124.5587 0001113 266.4557 222.3989 15.27552729    12

Sigue STARLINK-5773 en tiempo real con AllMySat

Download on the App Store